Regional Weather Roundup
Issued by NWS Jackson, KY

Home | Current Version | Previous Version | Graphics & Text | Print | Product List | Glossary On
Versions: 1 2 3 4 5 6 7 8 9 10 11 12 13 14 15 16 17 18 19 20 21 22 23 24 25 26 27 28 29 30 31 32 33 34 35 36 37 38 39 40 41 42 43 44 45 46 47 48 49 50
000
ASUS43 KJKL 010210
RWRJKL

EAST KENTUCKY HOURLY WEATHER ROUNDUP
NATIONAL WEATHER SERVICE JACKSON KY
1000 PM EDT TUE JUN 30 2015

NOTE: "FAIR" INDICATES FEW OR NO CLOUDS BELOW 12,000 FEET WITH
NO SIGNIFICANT WEATHER AND/OR OBSTRUCTIONS TO VISIBILITY.

* THESE REPORTS ARE NOT UNDER NWS QUALITY CONTROL AND MAY NOT
  REPORT WEATHER SUCH AS PRECIPITATION AND FOG.

KYZ079-080-083-085-087-088-110-112-115-119-120-010300
...EASTERN KENTUCKY...

CITY           SKY/WX    TMP DP  RH WIND       PRES   REMARKS
JACKSON        CLOUDY    60  58  92 CALM      29.96R FOG
LONDON         CLEAR     71  65  81 SE3       29.95R
MONTICELLO*    PTCLDY    71  71 100 CALM      29.96R
HAZARD APT*    CLOUDY    63  61  94 S6        29.97F
BLACK MTN*       N/A     59  57  94 VRB14       N/A
PIKEVILLE APT* LGT RAIN  61  61 100 SE3       29.98F
MOREHEAD APT*  CLOUDY    61  59  94 SW5       29.92R
$$

KYZ035-036-041-042-044-050-067-078-099-010300
...CENTRAL KENTUCKY...

CITY           SKY/WX    TMP DP  RH WIND       PRES   REMARKS
LEXINGTON      MOCLDY    64  62  93 S3        29.91R
FRANKFORT      LGT RAIN  65  62  90 CALM      29.92R FOG
$$

KYZ091>093-OHZ055-061-077-WVZ005-015-034-035-042-010300
...SOUTHERN OHIO/WEST VIRGINIA...

CITY           SKY/WX    TMP DP  RH WIND       PRES   REMARKS
COVINGTON      PTCLDY    64  62  93 SW3       29.86R FOG
COLUMBUS       LGT RAIN  65  61  87 W5        29.85R
DAYTON         PTCLDY    69  64  84 SW9       29.85R
WILMINGTON     MOCLDY    63  59  87 SW5       29.85R
HUNTINGTON     CLOUDY    62  61  96 S10       29.87F
CHARLESTON     CLOUDY    63  60  90 S7        29.91R
BECKLEY        LGT RAIN  60  57  89 S8        30.02R FOG
BLUEFIELD      CLOUDY    64  59  83 VRB5      30.02R
$$

VAZ002-007-008-TNZ017-027-036-066-071-010300
...SOUTHWEST VIRGINIA/EAST TENNESSEE...

CITY           SKY/WX    TMP DP  RH WIND       PRES   REMARKS
BRISTOL        CLOUDY    72  63  73 W6        29.99R
KNOXVILLE      CLOUDY    70  63  78 W6        29.96R
OAK RIDGE      MOCLDY    72  67  84 VRB3      29.97R
CROSSVILLE     LGT RAIN  71  66  84 SW3       30.01R
NASHVILLE      CLOUDY    77  70  79 SW6       29.94R
$$

...KEY TO REMARKS...
VSB - VISIBILITY IN MILES
WCI - WIND CHILL INDEX
HX  - HEAT INDEX

$$


USA.gov is the U.S. government's official web portal to all federal, state and local government web resources and services.